Location: ?
(35.3436°N, 139.3168°E)
Time: 10:47:40
(UTC+00:00)

X-37B - Pass Details

Date: 31 January 2021
Orbit: 383 x 391 km, 45.0° (Epoch: 10 February)

Event Time Altitude Azimuth Distance (km) Brightness Sun altitude
Rises 10:25:32 0° 291° (WNW) 2,272 5.5 -27.9°
Reaches altitude 10° 10:27:49 10° 277° (W) 1,416 4.4 -28.3°
Enters shadow 10:28:45 16° 266° (W) 1,114 3.7 -28.5°
